Weather History for Chihuahua, Mexico

Change the Weather History Date:

Wednesday, February 27, 2013

  Actual Average Record
Temperature  
Mean Temperature 46 °F -  
Max Temperature 57 °F 73 °F 91 °F (2009)
Min Temperature 36 °F 41 °F 26 °F (2002)
Degree Days  
Heating Degree Days 18    
Moisture  
Dew Point 8 °F    
Average Humidity 16    
Maximum Humidity 24    
Minimum Humidity 7    
Precipitation  
Precipitation 0.00 in - - ()
Sea Level Pressure  
Sea Level Pressure 30.10 in    
Wind  
Wind Speed 8 mph ()    
Max Wind Speed 21 mph    
Max Gust Speed 33 mph    
Visibility 7.8 miles    
Events      
Averages and records for this station are not official NWS values.
T = Trace of Precipitation, MM = Missing Value Source: Averaged Metar Reports

Daily Weather History Graph

Daily Weather History Graph

Search for Another Location

Airport:

Trip Planner

Search our weather history database for the weather conditions in past years. The results will help you decide how hot, cold, wet, or windy it might be!

Date:

Astronomy

Feb. 27, 2013 Rise Set
Actual Time 6:30 AM MST 6:02 PM MST
Civil Twilight 6:06 AM MST 6:26 PM MST
Nautical Twilight 5:39 AM MST 6:53 PM MST
Astronomical Twilight 5:12 AM MST 7:21 PM MST
Moon 8:10 PM MST (2/27) 7:21 AM MST (2/27)
Length of Visible Light 12h 19m
Length of Day
11h 32m
Waning Gibbous, 96% of the Moon is Illuminated
Feb 27
Waning Gibbous
Mar 4
Last Quarter
Mar 11
New
Mar 19
First Quarter
Mar 27
Full

Hourly Weather History & Observations

Time (MST) Temp. Windchill Dew Point Humidity Pressure Visibility Wind Dir Wind Speed Gust Speed Precip Events Conditions
1:50 AM 49 °F - 5 °F 7% 29.80 in 1 mi North 4.5 mph - -   Mostly Cloudy
4:45 AM 40 °F - 0 °F 8% 29.92 in 1 mi Calm Calm - -   Partly Cloudy
5:40 AM 39.2 °F 30.5 °F 3.2 °F 22% 30.07 in 10.0 mi North 16.1 mph - N/A   Mostly Cloudy
6:40 AM 37.4 °F 28.5 °F 3.2 °F 24% 30.17 in 10.0 mi North 15.0 mph - N/A   Mostly Cloudy
7:40 AM 39.2 °F 30.8 °F 3.2 °F 22% 30.22 in 10.0 mi North 15.0 mph - N/A   Scattered Clouds
7:45 AM 44 °F - 18 °F 22% 30.09 in 6 mi ENE 2.2 mph - -   Scattered Clouds
8:40 AM 44.6 °F 36.4 °F 3.2 °F 18% 30.24 in 10.0 mi North 20.7 mph 33.4 mph N/A   Scattered Clouds
9:41 AM 48.2 °F - 5.0 °F 17% 30.25 in 10.0 mi North 17.3 mph - N/A   Mostly Cloudy
10:40 AM 51.8 °F - 5.0 °F 15% 30.22 in 10.0 mi NNE 11.5 mph - N/A   Mostly Cloudy
10:45 AM 53 °F - 12 °F 9% 30.12 in 6 mi NE 6.7 mph - -   Partly Cloudy
11:40 AM 51.8 °F - 5.0 °F 15% 30.23 in 10.0 mi North 11.5 mph - N/A   Mostly Cloudy
12:40 PM 55.4 °F - 6.8 °F 14% 30.19 in 10.0 mi NNE 6.9 mph 20.7 mph N/A   Mostly Cloudy
1:30 PM 57 °F - 27 °F 20% 30.01 in 6 mi NNE 4.5 mph - -   Scattered Clouds
1:40 PM 57.2 °F - 8.6 °F 14% 30.10 in 10.0 mi NNW 10.4 mph - N/A   Mostly Cloudy
2:40 PM 57.2 °F - 6.8 °F 13% 30.14 in 10.0 mi North 12.7 mph - N/A   Scattered Clouds
3:40 PM 57.2 °F - 6.8 °F 13% 30.12 in 10.0 mi North 18.4 mph - N/A   Scattered Clouds
4:40 PM 57 °F - 21 °F 14% 29.93 in 6 mi NNE 6.7 mph - -   Scattered Clouds
4:40 PM 55.4 °F - 6.8 °F 14% 30.06 in 10.0 mi North 13.8 mph - N/A   Mostly Cloudy
5:40 PM 53.6 °F - 5.0 °F 14% 30.13 in 10.0 mi North 8.1 mph - N/A   Mostly Cloudy
6:40 PM 46.4 °F 42.4 °F 3.2 °F 17% 30.14 in 10.0 mi North 8.1 mph - N/A   Mostly Cloudy
7:40 PM 44.6 °F 41.4 °F 1.4 °F 17% 30.16 in 10.0 mi ENE 5.8 mph - N/A   Scattered Clouds
7:55 PM 46 °F - 11 °F 13% 29.96 in 1 mi Calm Calm - -  
8:40 PM 42.8 °F 38.6 °F 1.4 °F 18% 30.18 in 10.0 mi ENE 6.9 mph - N/A   Scattered Clouds
10:30 PM 46 °F - 12 °F 13% 29.99 in 1 mi North 2.2 mph - -   Clear